| time (UTC) | temp C | wind direction | speed KPH | gust KPH | rain 1hr cm | rain 24hr cm | rain mn cm | humidity % | barometer mb |
| 20260901103049 | 19 | 342 | 0.0 | 1.6 | 0.00 | 0.71 | 0.03 | 100 | 1017.0 |
| 20260901101538 | 19 | 10 | 0.0 | 1.6 | 0.00 | 0.71 | 0.03 | 100 | 1016.9 |
| 20260901100036 | 19 | 342 | 0.0 | 1.6 | 0.00 | 0.71 | 0.03 | 100 | 1016.8 |
| 20260901094535 | 19 | 121 | 0.0 | 0.0 | 0.00 | 0.71 | 0.03 | 100 | 1016.6 |
| 20260901093036 | 19 | 20 | 0.0 | 3.2 | 0.00 | 0.71 | 0.03 | 100 | 1016.8 |
| 20260901091534 | 18 | 35 | 0.0 | 0.0 | 0.00 | 0.71 | 0.03 | 100 | 1016.9 |
| 20260901090032 | 18 | 35 | 0.0 | 0.0 | 0.00 | 0.71 | 0.03 | 100 | 1016.8 |
| 20260901084531 | 18 | 35 | 0.0 | 3.2 | 0.00 | 0.71 | 0.03 | 100 | 1016.9 |
| 20260901083030 | 18 | 288 | 0.0 | 1.6 | 0.00 | 0.71 | 0.03 | 100 | 1017.1 |
| 20260901081528 | 18 | 307 | 0.0 | 1.6 | 0.00 | 0.71 | 0.03 | 100 | 1017.3 |
| 20260901080036 | 18 | 8 | 0.0 | 1.6 | 0.00 | 0.71 | 0.03 | 100 | 1017.3 |
| 20260901074527 | 18 | 42 | 0.0 | 0.0 | 0.03 | 0.71 | 0.03 | 100 | 1017.4 |
| 20260901073027 | 18 | 42 | 0.0 | 1.6 | 0.03 | 0.71 | 0.03 | 100 | 1017.4 |
| 20260901071524 | 18 | 9 | 0.0 | 0.0 | 0.03 | 0.71 | 0.03 | 100 | 1017.3 |
| 20260901070022 | 19 | 9 | 0.0 | 8.0 | 0.03 | 0.71 | 0.03 | 100 | 1017.7 |
| 20260901064525 | 19 | 57 | 0.0 | 0.0 | 0.00 | 0.71 | 0.00 | 100 | 1017.7 |
| 20260901063041 | 19 | 57 | 0.0 | 0.0 | 0.00 | 0.71 | 0.00 | 100 | 1017.7 |
| 20260901061519 | 19 | 57 | 0.0 | 1.6 | 0.00 | 0.71 | 0.00 | 100 | 1017.8 |
| 20260901060016 | 18 | 218 | 0.0 | 0.0 | 0.00 | 0.71 | 0.00 | 100 | 1017.9 |
| 20260901054515 | 18 | 200 | 0.0 | 0.0 | 0.00 | 0.71 | 0.00 | 100 | 1018.0 |
| 20260901053013 | 18 | 200 | 0.0 | 0.0 | 0.00 | 0.71 | 0.00 | 100 | 1018.1 |
| 20260901051511 | 18 | 199 | 0.0 | 0.0 | 0.00 | 0.71 | 0.00 | 100 | 1018.2 |
| 20260901050010 | 18 | 199 | 0.0 | 1.6 | 0.00 | 0.71 | 0.00 | 100 | 1018.3 |
| 20260901044509 | 18 | 196 | 0.0 | 1.6 | 0.00 | 0.71 | 0.00 | 100 | 1018.4 |
| 20260901043008 | 18 | 197 | 0.0 | 0.0 | 0.13 | 0.71 | 0.00 | 99 | 1018.5 |
| 20260901041505 | 18 | 198 | 0.0 | 1.6 | 0.30 | 0.71 | 0.00 | 99 | 1018.5 |
| 20260901040005 | 18 | 198 | 0.0 | 0.0 | 0.33 | 0.71 | 0.00 | 99 | 1018.6 |
| 20260901034503 | 18 | 198 | 0.0 | 0.0 | 0.33 | 0.71 | 0.71 | 99 | 1018.8 |
| 20260901033101 | 18 | 198 | 0.0 | 1.6 | 0.28 | 0.61 | 0.58 | 99 | 1018.7 |
| 20260901031559 | 18 | 213 | 0.0 | 0.0 | 0.13 | 0.43 | 0.41 | 99 | 1018.7 |
| 20260901030059 | 18 | 213 | 0.0 | 1.6 | 0.10 | 0.41 | 0.38 | 99 | 1018.7 |
| 20260901024557 | 18 | 221 | 0.0 | 0.0 | 0.10 | 0.41 | 0.38 | 99 | 1019.0 |
| 20260901023056 | 18 | 226 | 0.0 | 0.0 | 0.03 | 0.33 | 0.30 | 99 | 1019.2 |
| 20260901021557 | 18 | 243 | 0.0 | 0.0 | 0.00 | 0.30 | 0.28 | 99 | 1019.3 |
| 20260901020057 | 18 | 243 | 0.0 | 0.0 | 0.00 | 0.30 | 0.28 | 99 | 1019.3 |
| 20260901014555 | 18 | 243 | 0.0 | 0.0 | 0.00 | 0.30 | 0.28 | 99 | 1019.3 |
| 20260901013110 | 18 | 243 | 0.0 | 0.0 | 0.00 | 0.30 | 0.28 | 99 | 1019.4 |
| 20260901011554 | 18 | 243 | 0.0 | 1.6 | 0.00 | 0.30 | 0.28 | 99 | 1019.3 |
| 20260901010057 | 18 | 309 | 0.0 | 0.0 | 0.00 | 0.30 | 0.28 | 98 | 1019.4 |
| 20260901004553 | 19 | 309 | 0.0 | 0.0 | 0.08 | 0.30 | 0.28 | 98 | 1019.2 |
| 20260901003052 | 19 | 311 | 0.0 | 0.0 | 0.13 | 0.30 | 0.28 | 98 | 1019.1 |
| 20260901001553 | 19 | 311 | 0.0 | 0.0 | 0.13 | 0.30 | 0.28 | 98 | 1019.0 |
| 20260901000052 | 19 | 311 | 0.0 | 0.0 | 0.13 | 0.30 | 0.28 | 98 | 1018.9 |
| 20260831234553 | 19 | 311 | 0.0 | 0.0 | 0.05 | 0.23 | 0.20 | 97 | 1019.1 |
| 20260831233053 | 20 | 311 | 0.0 | 0.0 | 0.00 | 0.18 | 0.15 | 97 | 1019.2 |
| 20260831231549 | 20 | 311 | 0.0 | 0.0 | 0.00 | 0.18 | 0.15 | 97 | 1019.4 |
| 20260831230047 | 20 | 311 | 0.0 | 0.0 | 0.00 | 0.18 | 0.15 | 96 | 1019.6 |
| 20260831224546 | 20 | 311 | 0.0 | 0.0 | 0.00 | 0.18 | 0.15 | 96 | 1019.4 |
| 20260831223053 | 20 | 311 | 0.0 | 0.0 | 0.00 | 0.18 | 0.15 | 96 | 1019.4 |
| 20260831221545 | 20 | 311 | 0.0 | 0.0 | 0.00 | 0.18 | 0.15 | 96 | 1019.4 |
| 20260831220046 | 20 | 311 | 0.0 | 0.0 | 0.00 | 0.18 | 0.15 | 96 | 1019.7 |
| 20260831214557 | 20 | 311 | 0.0 | 0.0 | 0.00 | 0.18 | 0.15 | 96 | 1019.4 |
| 20260831213043 | 20 | 311 | 0.0 | 0.0 | 0.00 | 0.18 | 0.15 | 95 | 1019.6 |
| 20260831211544 | 20 | 311 | 0.0 | 0.0 | 0.00 | 0.18 | 0.15 | 95 | 1019.7 |
| 20260831210040 | 20 | 311 | 0.0 | 0.0 | 0.00 | 0.18 | 0.15 | 96 | 1019.9 |
| 20260831204641 | 20 | 312 | 0.0 | 1.6 | 0.00 | 0.18 | 0.15 | 96 | 1019.9 |
| 20260831203039 | 20 | 312 | 0.0 | 0.0 | 0.00 | 0.18 | 0.15 | 96 | 1020.0 |
| 20260831201537 | 20 | 312 | 0.0 | 0.0 | 0.03 | 0.18 | 0.15 | 96 | 1020.1 |
| 20260831200036 | 20 | 45 | 0.0 | 0.0 | 0.08 | 0.18 | 0.15 | 97 | 1020.0 |
| 20260831194536 | 19 | 45 | 0.0 | 0.0 | 0.15 | 0.18 | 0.15 | 95 | 1020.1 |
| 20260831193102 | 19 | 45 | 0.0 | 3.2 | 0.15 | 0.18 | 0.15 | 94 | 1020.7 |
| 20260831191534 | 20 | 127 | 0.0 | 0.0 | 0.13 | 0.15 | 0.13 | 93 | 1020.9 |
| 20260831190038 | 20 | 127 | 0.0 | 0.0 | 0.08 | 0.10 | 0.08 | 91 | 1021.1 |
| 20260831184533 | 21 | 127 | 0.0 | 0.0 | 0.00 | 0.03 | 0.00 | 88 | 1021.0 |
| 20260831183032 | 21 | 127 | 0.0 | 0.0 | 0.00 | 0.03 | 0.00 | 85 | 1020.9 |
| 20260831181545 | 22 | 127 | 0.0 | 0.0 | 0.00 | 0.03 | 0.00 | 84 | 1020.8 |
| 20260831180036 | 22 | 127 | 0.0 | 0.0 | 0.00 | 0.03 | 0.00 | 83 | 1020.9 |
| 20260831174529 | 22 | 127 | 0.0 | 0.0 | 0.00 | 0.03 | 0.00 | 82 | 1021.0 |
| 20260831173028 | 22 | 127 | 0.0 | 0.0 | 0.00 | 0.03 | 0.00 | 80 | 1021.2 |
| 20260831171527 | 23 | 127 | 0.0 | 0.0 | 0.00 | 0.03 | 0.00 | 78 | 1021.1 |
| 20260831170030 | 22 | 356 | 0.0 | 0.0 | 0.00 | 0.03 | 0.00 | 78 | 1021.0 |
| 20260831164522 | 22 | 356 | 0.0 | 0.0 | 0.00 | 0.03 | 0.00 | 81 | 1021.1 |
| 20260831163023 | 22 | 356 | 0.0 | 0.0 | 0.00 | 0.03 | 0.00 | 81 | 1021.1 |
| 20260831161535 | 22 | 95 | 0.0 | 3.2 | 0.00 | 0.03 | 0.00 | 81 | 1021.0 |
| 20260831160020 | 22 | 142 | 0.0 | 3.2 | 0.00 | 0.03 | 0.00 | 82 | 1021.0 |
| 20260831154518 | 22 | 134 | 0.0 | 1.6 | 0.00 | 0.03 | 0.00 | 83 | 1021.3 |
| 20260831153016 | 21 | 135 | 0.0 | 1.6 | 0.00 | 0.03 | 0.00 | 81 | 1021.5 |
| 20260831151514 | 21 | 307 | 0.0 | 3.2 | 0.00 | 0.03 | 0.00 | 83 | 1021.6 |
| 20260831150013 | 21 | 316 | 0.0 | 1.6 | 0.00 | 0.03 | 0.00 | 82 | 1021.6 |
| 20260831144514 | 21 | 310 | 0.0 | 3.2 | 0.00 | 0.03 | 0.00 | 83 | 1021.7 |
| 20260831143012 | 21 | 264 | 0.0 | 0.0 | 0.00 | 0.03 | 0.00 | 85 | 1021.6 |
| 20260831141508 | 20 | 144 | 0.0 | 1.6 | 0.00 | 0.03 | 0.00 | 85 | 1021.6 |
| 20260831140006 | 20 | 144 | 0.0 | 1.6 | 0.00 | 0.03 | 0.00 | 87 | 1021.6 |
| 20260831134503 | 20 | 143 | 0.0 | 0.0 | 0.00 | 0.03 | 0.00 | 89 | 1021.4 |
| 20260831133000 | 19 | 143 | 0.0 | 1.6 | 0.00 | 0.03 | 0.00 | 90 | 1021.4 |
| 20260831131603 | 19 | 301 | 0.0 | 0.0 | 0.00 | 0.03 | 0.00 | 92 | 1021.2 |
| 20260831130105 | 18 | 301 | 0.0 | 1.6 | 0.00 | 0.03 | 0.00 | 93 | 1021.2 |
| 20260831124556 | 18 | 298 | 0.0 | 0.0 | 0.00 | 0.03 | 0.00 | 95 | 1021.4 |
| 20260831123055 | 17 | 298 | 0.0 | 0.0 | 0.00 | 0.03 | 0.00 | 95 | 1021.5 |
| 20260831121555 | 17 | 298 | 0.0 | 0.0 | 0.00 | 0.03 | 0.00 | 95 | 1021.3 |
| 20260831120055 | 17 | 298 | 0.0 | 0.0 | 0.00 | 0.03 | 0.00 | 96 | 1021.4 |
| 20260831114553 | 17 | 298 | 0.0 | 0.0 | 0.00 | 0.03 | 0.00 | 95 | 1021.4 |
| 20260831113055 | 17 | 298 | 0.0 | 0.0 | 0.00 | 0.03 | 0.00 | 95 | 1021.1 |
| 20260831111553 | 17 | 298 | 0.0 | 0.0 | 0.00 | 0.03 | 0.00 | 95 | 1021.0 |
| 20260831110048 | 17 | 298 | 0.0 | 0.0 | 0.00 | 0.03 | 0.00 | 94 | 1020.5 |
| 20260831104550 | 17 | 317 | 0.0 | 1.6 | 0.00 | 0.03 | 0.00 | 94 | 1020.4 |